[[{"header":{"parameterUnit":"m.s-1","parameterCategory":1,"la1":30.2991,"la2":30.254,"lo1":-89.0895,"lo2":-89.0444,"dy":0.0017,"dx":0.0017,"nx":28,"ny":28,"refTime":"2024-10-08T09:00:00:Z","depth":0,"parameterNumber":2,"parameterNumberName":"U-component_of_WINDS"},"data":[0,0,0,0,0,0,0,0,0,0,0,0,0,0,0,0,0,0,0,0,0,0,0,0,0,0,0,0,0,0,0,0,0,0,0,0,0,0,0,0,0,0,0,0,0,0,0,0,0,0,0,0,0,0,0,0,0,0,-0.7924,-0.7924,0,-0.7984,-0.7985,-0.7986,-0.7979,-0.7978,-0.7977,-0.7976,-0.8039,-0.8041,-0.8044,0,0,0,0,0,0,0,0,0,0,0,0,0,-0.7802,-0.7804,-0.7924,-0.7924,-0.7925,-0.7984,-0.7985,-0.7986,-0.7979,-0.7978,-0.7977,-0.7976,-0.8038,-0.8041,-0.8044,0,0,0,0,0,0,0,0,0,0,0,0,0,-0.7858,-0.7805,-0.7923,-0.7929,-0.793,-0.7984,-0.7985,-0.7986,-0.798,-0.7978,-0.7977,-0.7975,-0.8037,-0.8041,-0.8045,-0.8097,0,0,-0.8056,-0.8058,0,0,0,0,0,0,0,0,-0.7855,-0.7862,-0.7927,-0.7929,-0.793,-0.7973,-0.7965,-0.8023,-0.798,-0.7961,-0.7976,-0.7975,-0.8018,-0.8023,-0.8038,-0.81,-0.8103,-0.8057,-0.8059,-0.8061,-0.8062,0,0,0,0,0,0,0,-0.7851,-0.786,-0.7948,-0.7928,-0.793,-0.7928,-0.7935,-0.7976,-0.7997,-0.7962,-0.7962,-0.7969,-0.8019,-0.8034,-0.8039,-0.8104,-0.8057,-0.806,-0.8062,-0.8064,-0.8212,-0.8214,0,0,0,0,0,0,-0.7845,-0.7856,-0.7946,-0.7949,-0.7888,-0.7932,-0.7939,-0.7961,-0.7996,-0.8,-0.7971,-0.7969,-0.8029,-0.8035,-0.8042,-0.8106,-0.8061,-0.8064,-0.8067,-0.8211,-0.8213,-0.8214,0,0,0,0,0,0,-0.7843,-0.7853,-0.7943,-0.7903,-0.7914,-0.7935,-0.796,-0.7962,-0.7978,-0.8003,-0.8006,-0.7983,-0.8028,-0.8036,-0.8084,-0.8108,-0.8066,-0.807,-0.8209,-0.8211,-0.8214,-0.8235,0,0,0,0,0,0,-0.7839,-0.7853,-0.7873,-0.7903,-0.7916,-0.7984,-0.7961,-0.7965,-0.7985,-0.7983,-0.8015,-0.8019,-0.8027,-0.8078,-0.8087,-0.8113,-0.8073,-0.8207,-0.821,-0.8213,-0.8233,-0.8238,-0.8243,0,0,0,0,0,-0.7835,-0.7877,-0.7874,-0.7885,-0.7942,-0.7986,-0.7993,-0.8002,-0.7987,-0.8008,-0.8023,-0.8018,-0.8104,-0.8083,-0.8093,-0.812,-0.8205,-0.8209,-0.8212,-0.823,-0.8237,-0.8243,0,0,0,0,0,0,-0.7849,-0.7881,-0.7878,-0.7931,-0.7956,-0.7985,-0.8011,-0.8009,-0.8038,-0.8036,-0.8045,-0.8052,-0.81,-0.8115,-0.8091,-0.8173,-0.8152,-0.8158,-0.8162,-0.8169,-0.8174,-0.817,-0.8076,0,0,0,0,0,-0.7858,-0.7891,-0.7917,-0.7961,-0.7973,-0.799,-0.8009,-0.8013,-0.804,-0.805,-0.8069,-0.8095,-0.8127,-0.8149,-0.818,-0.8234,-0.8241,-0.8258,-0.8263,-0.8267,-0.8273,-0.8303,-0.8311,-0.8226,-0.8226,-0.8226,0,0,-0.7877,-0.7899,-0.7919,-0.7964,-0.7984,-0.8018,-0.7999,-0.8035,-0.8061,-0.8056,-0.8102,-0.8116,-0.8145,-0.8196,-0.822,-0.821,-0.8297,-0.8272,-0.8275,-0.8278,-0.8308,-0.8315,-0.8323,-0.8229,-0.8229,-0.8228,0,0,-0.793,-0.7949,-0.7989,-0.8008,-0.8038,-0.8049,-0.8058,-0.8088,-0.8097,-0.8143,-0.814,-0.817,-0.8226,-0.8247,-0.8265,-0.8325,-0.8322,-0.8335,-0.8363,-0.8392,-0.8399,-0.8405,-0.8427,-0.8435,-0.834,-0.834,-0.834,0,-0.7951,-0.8002,-0.8009,-0.8046,-0.8066,-0.8062,-0.8102,-0.8121,-0.816,-0.8174,-0.8162,-0.8232,-0.8251,-0.8307,-0.8322,-0.8336,-0.8347,-0.8332,-0.8397,-0.8403,-0.8409,-0.843,-0.8439,-0.8341,-0.8341,-0.8341,-0.8341,0,-0.8026,-0.8061,-0.8089,-0.8127,-0.8149,-0.8188,-0.82,-0.8223,-0.8224,-0.8236,-0.8283,-0.8306,-0.8342,-0.8355,-0.8358,-0.8412,-0.8405,-0.8395,-0.8375,-0.8418,-0.8439,-0.8447,-0.8343,-0.8343,-0.8342,-0.8342,0,0,-0.8091,-0.8131,-0.8141,-0.8159,-0.8191,-0.8218,-0.8256,-0.8291,-0.831,-0.8336,-0.8369,-0.8416,-0.8407,-0.8427,-0.8431,-0.8457,-0.8504,-0.8444,-0.8444,-0.8455,-0.8566,-0.8574,-0.8583,-0.8501,-0.8502,-0.8503,-0.8564,0,-0.8148,-0.8215,-0.8223,-0.8283,-0.8316,-0.8312,-0.8345,-0.8368,-0.838,-0.8409,-0.8422,-0.8455,-0.844,-0.8453,-0.8478,-0.8493,-0.8526,-0.8488,-0.8532,-0.8533,-0.8526,-0.8594,-0.8603,-0.8659,-0.8571,-0.8573,-0.8574,0,-0.8224,-0.8253,-0.8316,-0.8344,-0.8358,-0.8388,-0.842,-0.8448,-0.8474,-0.8481,-0.8503,-0.8504,-0.8543,-0.8519,-0.8573,-0.8547,-0.8565,-0.8575,-0.8577,-0.8583,-0.8557,-0.8603,-0.8676,-0.8685,-0.8586,-0.8585,-0.8584,0,-0.8267,-0.8321,-0.8366,-0.8381,-0.8414,-0.8435,-0.8449,-0.8474,-0.8494,-0.8523,-0.8536,-0.8568,-0.8586,-0.8611,-0.8621,-0.8603,-0.8674,-0.8652,-0.8682,-0.8682,-0.8698,-0.8698,-0.8778,-0.8707,-0.8707,-0.8707,-0.8707,0,-0.8331,-0.837,-0.8386,-0.8414,-0.8458,-0.8465,-0.8508,-0.8521,-0.8543,-0.8574,-0.8572,-0.86,-0.861,-0.864,-0.8648,-0.8692,-0.8699,-0.8706,-0.8708,-0.8707,-0.8707,-0.8721,-0.8717,-0.8709,-0.8709,-0.8708,-0.8708,0,-0.8387,-0.8399,-0.8448,-0.8475,-0.8483,-0.8514,-0.8537,-0.8564,-0.8574,-0.8613,-0.8622,-0.8639,-0.8674,-0.8686,-0.8728,-0.8733,-0.8785,-0.8782,-0.8776,-0.8777,-0.8807,-0.8804,-0.89,-0.8913,-0.8833,-0.8833,-0.8834,0,-0.8428,-0.8458,-0.8488,-0.8509,-0.8524,-0.8557,-0.8578,-0.8585,-0.8607,-0.8639,-0.8662,-0.8697,-0.8725,-0.8782,-0.8798,-0.8831,-0.883,-0.8861,-0.8835,-0.8833,-0.8832,-0.8831,-0.8834,-0.8866,-0.8867,-0.8868,-0.8869,0,-0.85,-0.8504,-0.8535,-0.8567,-0.8592,-0.8618,-0.8643,-0.8659,-0.867,-0.8695,-0.8731,-0.8753,-0.8796,-0.8831,-0.8864,-0.8879,-0.8876,-0.8876,-0.8885,-0.8886,-0.8882,-0.8885,-0.8791,-0.8875,-0.8874,-0.8874,-0.8873,-0.8873,-0.8551,-0.8578,-0.8603,-0.8637,-0.8656,-0.8679,-0.8706,-0.872,-0.875,-0.8786,-0.8788,-0.8828,-0.8852,-0.8896,-0.8913,-0.8943,-0.8934,-0.8947,-0.8951,-0.8954,-0.8957,-0.8875,-0.8949,-0.8949,-0.8949,-0.8949,-0.8948,0,-0.8624,-0.864,-0.8671,-0.8706,-0.8732,-0.8726,-0.8753,-0.8775,-0.881,-0.8833,-0.8861,-0.8903,-0.8936,-0.8954,-0.8988,-0.9009,-0.9008,-0.9018,-0.9017,-0.9021,-0.8962,-0.8952,-0.9017,-0.9017,-0.9017,-0.9017,-0.9017,-0.9017,-0.8665,-0.8711,-0.8718,-0.8772,-0.8787,-0.8826,-0.8842,-0.8863,-0.8882,-0.8928,-0.8956,-0.8968,-0.8989,-0.9024,-0.9054,-0.9059,-0.9072,-0.9082,-0.9086,-0.9032,-0.9025,-0.9018,-0.9008,-0.9085,-0.9085,-0.9142,-0.9142,-0.9143]},{"header":{"parameterUnit":"m.s-1","parameterCategory":1,"la1":30.2991,"la2":30.254,"lo1":-89.0895,"lo2":-89.0444,"dy":0.0017,"dx":0.0017,"nx":28,"ny":28,"refTime":"2024-10-08T09:00:00:Z","depth":0,"parameterNumber":3,"parameterNumberName":"V-component_of_WINDS"},"data":[0,0,0,0,0,0,0,0,0,0,0,0,0,0,0,0,0,0,0,0,0,0,0,0,0,0,0,0,0,0,0,0,0,0,0,0,0,0,0,0,0,0,0,0,0,0,0,0,0,0,0,0,0,0,0,0,0,0,-5.8152,-5.8153,0,-5.8254,-5.8255,-5.8256,-5.8183,-5.818,-5.8177,-5.8174,-5.8272,-5.8278,-5.8283,0,0,0,0,0,0,0,0,0,0,0,0,0,-5.7889,-5.7894,-5.8152,-5.8153,-5.8154,-5.8253,-5.8255,-5.8256,-5.8184,-5.818,-5.8176,-5.8172,-5.827,-5.8277,-5.8284,0,0,0,0,0,0,0,0,0,0,0,0,0,-5.7998,-5.7895,-5.8151,-5.813,-5.8129,-5.8253,-5.8255,-5.8256,-5.8185,-5.818,-5.8175,-5.8171,-5.8268,-5.8276,-5.8285,-5.8433,0,0,-5.831,-5.8314,0,0,0,0,0,0,0,0,-5.7992,-5.8007,-5.8132,-5.8132,-5.8131,-5.8201,-5.8198,-5.8315,-5.8186,-5.8163,-5.8174,-5.8168,-5.8252,-5.8261,-5.8291,-5.8438,-5.8442,-5.8311,-5.8316,-5.832,-5.8322,0,0,0,0,0,0,0,-5.7984,-5.8003,-5.8192,-5.8134,-5.8133,-5.8114,-5.8124,-5.822,-5.8233,-5.8165,-5.816,-5.8173,-5.8251,-5.8283,-5.8293,-5.8443,-5.8311,-5.8318,-5.8324,-5.8327,-5.8716,-5.8721,0,0,0,0,0,0,-5.7979,-5.7997,-5.8188,-5.8195,-5.8048,-5.8122,-5.8134,-5.8183,-5.8232,-5.8235,-5.8177,-5.817,-5.8271,-5.8283,-5.8296,-5.8473,-5.832,-5.8328,-5.8332,-5.8711,-5.8718,-5.8723,0,0,0,0,0,0,-5.7974,-5.7997,-5.8184,-5.8095,-5.8117,-5.8132,-5.8188,-5.8188,-5.822,-5.8242,-5.8243,-5.8208,-5.8268,-5.8284,-5.84,-5.8475,-5.8331,-5.8339,-5.8705,-5.8713,-5.872,-5.8829,0,0,0,0,0,0,-5.7967,-5.7996,-5.8054,-5.8097,-5.8122,-5.8289,-5.8193,-5.8193,-5.8235,-5.8226,-5.8271,-5.8274,-5.8265,-5.8388,-5.8408,-5.8484,-5.8346,-5.8698,-5.8709,-5.8718,-5.8819,-5.8839,-5.8857,0,0,0,0,0,-5.7958,-5.8079,-5.8057,-5.808,-5.8195,-5.8293,-5.8308,-5.8297,-5.8242,-5.8299,-5.8313,-5.8272,-5.8464,-5.84,-5.8423,-5.8503,-5.8693,-5.8706,-5.8717,-5.881,-5.8835,-5.8857,0,0,0,0,0,0,-5.8042,-5.8084,-5.806,-5.8199,-5.8244,-5.8281,-5.8353,-5.8324,-5.8384,-5.8373,-5.8355,-5.8366,-5.8487,-5.8506,-5.8435,-5.8649,-5.8569,-5.8587,-5.8632,-5.8657,-5.8676,-5.8669,-5.8353,0,0,0,0,0,-5.8077,-5.8156,-5.8187,-5.8306,-5.833,-5.8338,-5.838,-5.8369,-5.8413,-5.8431,-5.8453,-5.8496,-5.8566,-5.8612,-5.8677,-5.8821,-5.8829,-5.8886,-5.8906,-5.8922,-5.8937,-5.9014,-5.904,-5.8763,-5.8762,-5.8762,0,0,-5.815,-5.8182,-5.8232,-5.8324,-5.8357,-5.8437,-5.8354,-5.8442,-5.8501,-5.8443,-5.8555,-5.8573,-5.8619,-5.875,-5.8808,-5.8769,-5.9015,-5.8937,-5.8949,-5.8956,-5.9029,-5.9055,-5.9078,-5.8771,-5.8769,-5.8768,0,0,-5.8323,-5.8356,-5.846,-5.8495,-5.8547,-5.8551,-5.8576,-5.8619,-5.8629,-5.8741,-5.87,-5.8768,-5.8889,-5.8924,-5.8958,-5.9145,-5.911,-5.9166,-5.9268,-5.9344,-5.9365,-5.9385,-5.9452,-5.9476,-5.9181,-5.9182,-5.9182,0,-5.8407,-5.8528,-5.8516,-5.8608,-5.8649,-5.8603,-5.8707,-5.874,-5.881,-5.8839,-5.8794,-5.8946,-5.8974,-5.9112,-5.9158,-5.9186,-5.9213,-5.9162,-5.9364,-5.9383,-5.9401,-5.9464,-5.949,-5.9188,-5.9187,-5.9187,-5.9186,0,-5.8627,-5.8712,-5.8789,-5.886,-5.891,-5.9007,-5.9008,-5.9059,-5.9043,-5.9052,-5.9166,-5.9199,-5.927,-5.9302,-5.9286,-5.9438,-5.9412,-5.9366,-5.9286,-5.9434,-5.9494,-5.9518,-5.9198,-5.9195,-5.9193,-5.9192,0,0,-5.8857,-5.8922,-5.895,-5.8982,-5.9036,-5.91,-5.9194,-5.9266,-5.9311,-5.936,-5.9438,-5.9542,-5.95,-5.9538,-5.9525,-5.9592,-5.9739,-5.9537,-5.9538,-5.9574,-5.9908,-5.9943,-5.9972,-5.9715,-5.972,-5.9723,-5.9904,0,-5.9034,-5.9202,-5.9194,-5.935,-5.9427,-5.9385,-5.9467,-5.9508,-5.9519,-5.9584,-5.9594,-5.9669,-5.9608,-5.9631,-5.9694,-5.9708,-5.9805,-5.9694,-5.9787,-5.979,-5.9777,-6.0003,-6.004,-6.0209,-5.9927,-5.9931,-5.9934,0,-5.9263,-5.9323,-5.9488,-5.9531,-5.9563,-5.9637,-5.9703,-5.9766,-5.9811,-5.9814,-5.9858,-5.9835,-5.9928,-5.9846,-5.9975,-5.9899,-5.9936,-5.9949,-5.9955,-5.9963,-5.9872,-6.0018,-6.0262,-6.0288,-5.9971,-5.9968,-5.9965,0,-5.9415,-5.9536,-5.9651,-5.9679,-5.9732,-5.9785,-5.9809,-5.985,-5.9894,-5.995,-5.9978,-6.0044,-6.008,-6.0131,-6.0125,-6.0066,-6.0256,-6.0173,-6.026,-6.026,-6.0302,-6.03,-6.0557,-6.0326,-6.0325,-6.0325,-6.0324,0,-5.9614,-5.9716,-5.972,-5.979,-5.9903,-5.9893,-6.0004,-6.0022,-6.0059,-6.013,-6.0096,-6.0164,-6.0152,-6.0219,-6.0215,-6.0322,-6.0338,-6.0343,-6.034,-6.0346,-6.0346,-6.0371,-6.0359,-6.0331,-6.033,-6.0329,-6.0327,0,-5.9803,-5.981,-5.9932,-5.9972,-5.9985,-6.0066,-6.01,-6.0166,-6.0174,-6.0265,-6.0286,-6.0297,-6.0375,-6.0374,-6.0462,-6.0459,-6.059,-6.0574,-6.0576,-6.0573,-6.0661,-6.0653,-6.0943,-6.0981,-6.0724,-6.0727,-6.0729,0,-5.993,-6.0008,-6.0058,-6.0105,-6.0133,-6.0208,-6.0254,-6.0245,-6.0293,-6.0351,-6.041,-6.0484,-6.0544,-6.0669,-6.0684,-6.0751,-6.0736,-6.0833,-6.0746,-6.0749,-6.0738,-6.0734,-6.0741,-6.0851,-6.0853,-6.0856,-6.0858,0,-6.0154,-6.0154,-6.0222,-6.0291,-6.0347,-6.0401,-6.045,-6.0489,-6.0486,-6.0542,-6.0622,-6.0668,-6.0759,-6.0833,-6.0897,-6.0919,-6.0888,-6.0885,-6.0909,-6.0916,-6.0914,-6.0917,-6.0624,-6.0879,-6.0876,-6.0875,-6.0874,-6.0873,-6.0316,-6.0384,-6.043,-6.0507,-6.0544,-6.0591,-6.0655,-6.0672,-6.0739,-6.0814,-6.0804,-6.0893,-6.0935,-6.1019,-6.1047,-6.1115,-6.1081,-6.1115,-6.1124,-6.1133,-6.1143,-6.0903,-6.1127,-6.1126,-6.1126,-6.1125,-6.1125,0,-6.054,-6.0567,-6.0638,-6.071,-6.077,-6.0737,-6.079,-6.0842,-6.0922,-6.0965,-6.1025,-6.1116,-6.1188,-6.1209,-6.1278,-6.1329,-6.1316,-6.1347,-6.1344,-6.1349,-6.1169,-6.1142,-6.1356,-6.1356,-6.1356,-6.1356,-6.1356,-6.1356,-6.0663,-6.0776,-6.0782,-6.0912,-6.0938,-6.1028,-6.1061,-6.1103,-6.1138,-6.1243,-6.1303,-6.1317,-6.1351,-6.1423,-6.1487,-6.1491,-6.1518,-6.1555,-6.1553,-6.1385,-6.1362,-6.134,-6.1314,-6.1561,-6.1561,-6.1728,-6.1729,-6.173]}]]